Location: Knowlton
(51.2333°N, 1.2667°E)
Time: 23:35:34
(UTC+00:00)

ZACube-1 - Pass Details

Date: 04 December 2021
Orbit: 582 x 665 km, 97.6° (Epoch: 21 January)

Event Time Altitude Azimuth Distance (km) Brightness Sun altitude
Rises 04:30:46 0° 13° (NNE) 2,996 ? -28.7°
Reaches altitude 10° 04:32:59 10° 13° (NNE) 2,088 ? -28.3°
Enters shadow 04:34:10 18° 13° (NNE) 1,616 ? -28.2°
